Theta_e
310 309 309 309 309 309 310 310 310 310 311 311 311 312 312 312 313 313 313 313 313 313 313 313 313 313 313 315 316 314 308 308 310 311 313 313 314 314 314 314 315 313 312 312 314
310 309 309 309 309 309 310 310 310 310 311 311 311 312 312 312 313 313 313 313 313 313 313 312 312 313 314 316 316 310 307 308 308 310 313 314 314 314 314 314 313 313 312 313 313
309 309 309 309 309 309 310 310 310 310 311 311 311 311 312 312 314 313 312 312 312 311 311 312 314 313 314 315 315 312 310 309 311 313 314 314 314 314 313 312 311 312 312 312 312
309 309 309 309 309 309 309 310 310 310 311 311 311 311 312 314 312 313 312 312 312 312 312 313 313 313 311 312 314 313 313 312 314 315 314 314 314 313 313 311 311 311 311 312 313
308 308 309 309 309 309 310 310 310 310 310 310 310 312 315 317 316 316 316 313 313 312 312 313 313 312 311 311 312 313 313 313 314 314 314 313 313 312 309 308 309 310 311 312 312
309 309 309 309 310 310 310 310 310 310 309 310 313 316 317 316 317 317 317 317 316 314 312 312 312 312 312 312 311 311 311 312 313 313 312 311 310 312 307 308 309 310 310 310 310
311 310 310 310 310 310 310 310 310 310 312 314 315 317 317 318 318 318 318 318 317 315 313 312 312 312 313 311 311 312 311 308 310 310 310 310 309 308 307 308 309 309 308 308 309
316 316 315 314 314 313 314 314 314 315 315 316 316 316 317 318 318 318 317 317 316 315 312 311 311 313 313 312 310 310 308 312 311 310 310 310 312 306 306 308 306 306 306 306 307
317 316 316 315 315 315 315 315 315 315 315 315 315 315 315 316 316 316 315 315 315 314 313 312 313 312 312 308 309 307 313 309 310 310 309 309 311 304 306 307 304 303 304 304 305
318 317 317 316 316 315 315 314 314 314 314 314 315 315 315 315 315 315 315 314 314 313 313 313 312 307 305 308 313 311 309 308 309 310 309 310 309 304 303 304 301 301 301 302 304
322 320 319 319 318 317 315 315 315 315 315 315 316 315 315 315 314 313 313 313 312 312 310 310 308 310 309 307 309 308 308 310 308 308 311 309 309 303 302 301 300 299 300 300 301
324 323 322 321 321 320 318 315 314 315 315 315 315 315 316 314 313 312 312 312 311 309 306 306 308 309 308 306 308 307 308 308 307 308 310 309 309 303 302 300 300 299 299 299 299
323 323 323 324 322 321 321 319 316 317 318 317 315 316 316 315 314 313 313 311 309 307 306 308 310 307 307 307 308 307 308 308 310 310 308 309 309 304 300 299 299 298 299 299 299
323 322 321 323 321 322 322 322 318 317 315 315 316 317 315 315 312 314 313 312 308 309 307 307 307 309 307 308 308 308 306 307 309 310 312 308 315 305 302 300 298 297 298 297 296
321 322 322 321 322 322 323 322 320 318 322 314 314 313 313 315 312 309 310 310 308 308 309 310 308 308 310 310 307 312 307 307 309 309 309 308 311 307 302 302 299 297 297 297 295
321 323 322 321 321 321 322 320 318 318 321 317 310 309 311 310 309 308 309 310 310 309 309 310 309 308 309 308 308 305 307 306 305 306 311 310 313 309 304 305 300 297 297 296 295
320 321 322 321 321 321 320 318 320 319 318 316 312 308 311 308 308 308 308 309 311 312 312 310 309 306 307 308 306 308 310 314 312 311 314 306 309 312 304 302 301 298 296 296 294
320 321 320 320 321 320 319 319 318 317 317 308 308 308 312 307 308 307 308 309 308 310 310 313 317 307 305 311 310 307 312 315 314 313 312 307 310 310 301 301 301 299 298 296 294
319 320 319 320 320 320 318 321 319 318 315 310 309 310 310 308 310 306 307 308 309 308 317 313 314 307 306 306 310 308 311 309 309 297 307 309 308 302 298 299 298 297 296 295 294
317 319 319 320 320 319 318 322 319 315 315 312 318 313 312 308 310 307 306 306 309 308 310 312 314 308 307 307 307 308 307 312 311 312 310 310 309 311 301 298 297 296 295 295 295
317 317 318 318 318 317 320 319 319 316 317 314 318 319 313 310 310 309 310 308 305 306 309 309 312 309 307 307 308 308 308 309 310 311 312 308 308 304 303 300 298 297 296 295 295
316 316 317 319 317 314 319 317 315 315 315 317 315 317 316 311 310 312 312 309 308 306 309 308 311 310 308 306 306 307 308 309 313 310 306 307 310 300 301 300 298 297 296 296 296
315 316 315 317 319 316 309 311 313 315 316 317 317 316 316 314 314 311 310 310 309 306 309 310 313 315 314 309 307 308 307 307 307 308 308 313 310 300 299 299 299 297 296 297 297
308 313 311 312 314 316 314 312 313 311 315 314 315 314 315 316 315 316 315 310 310 310 310 311 310 311 316 311 307 308 307 305 309 311 309 312 305 303 299 299 298 298 297 297 297
304 307 307 311 312 313 311 310 312 313 313 312 313 312 314 312 312 311 313 307 307 311 310 311 313 310 305 305 306 302 304 306 307 309 314 308 307 304 303 300 299 300 297 297 297
303 304 303 303 305 311 313 313 312 312 314 313 312 310 312 309 311 309 309 309 310 306 310 309 312 309 309 307 309 308 307 305 305 306 305 306 307 303 303 302 300 300 299 297 298
301 301 302 302 302 306 310 312 312 311 312 309 310 310 311 310 310 311 310 309 309 308 308 308 308 310 311 302 304 309 306 307 307 303 307 307 307 297 298 301 301 301 298 298 297
Wind_Speed
4 4 4 3 3 4 4 4 5 6 7 7 8 8 9 9 10 11 10 6 6 5 5 5 3 1 1 4 4 3 4 2 4 6 3 1 2 2 2 1 5 4 3 1 1
8 7 6 6 6 6 6 7 7 7 7 8 9 10 11 12 13 11 3 2 2 3 4 4 4 3 2 2 2 4 3 6 4 4 3 2 1 3 1 4 2 3 2 7 8
10 10 10 9 8 8 8 8 9 9 9 9 10 10 11 11 11 2 2 3 4 3 5 5 6 2 2 1 1 3 4 3 2 6 3 2 4 1 1 1 2 6 3 2 2
11 11 11 12 11 10 10 10 11 11 11 11 11 11 10 9 1 0 1 2 2 3 4 5 2 1 2 1 1 1 3 4 2 2 2 2 3 2 1 2 2 3 5 4 4
12 13 12 13 13 13 12 12 12 12 12 12 12 12 11 7 7 9 8 7 5 5 7 6 4 3 3 3 3 3 2 4 6 8 9 8 8 2 5 5 7 8 6 4 4
13 14 14 14 14 15 14 14 14 13 14 13 12 12 10 7 7 8 8 8 8 8 9 8 3 3 3 3 4 2 3 9 9 11 7 5 2 4 5 9 7 5 5 5 5
13 14 14 15 16 16 16 16 15 14 14 14 14 13 13 17 11 9 8 8 8 8 9 8 7 5 5 2 2 1 4 7 4 4 5 6 5 4 5 7 6 5 5 5 6
12 13 13 15 16 16 17 17 17 16 15 15 13 13 10 14 15 16 16 16 10 9 8 6 7 5 3 5 4 1 4 3 2 3 1 5 3 1 1 7 6 6 5 5 5
13 12 12 13 15 17 16 16 16 16 16 15 13 9 9 13 14 15 15 13 12 9 8 6 8 4 5 5 4 5 3 4 7 2 2 2 3 4 2 6 8 7 6 6 7
15 13 12 13 15 15 15 15 14 15 16 14 15 7 16 8 7 8 13 13 8 12 9 7 5 3 3 4 6 6 4 4 5 3 3 2 3 4 7 6 10 10 9 10 10
18 16 14 14 14 15 14 13 8 8 12 12 5 6 3 11 8 9 13 14 11 9 6 4 4 9 15 11 4 6 4 5 4 3 4 7 5 3 6 9 10 12 13 14 16
18 17 17 17 16 15 14 8 8 8 11 17 24 23 18 9 7 13 16 13 9 5 8 4 9 11 5 6 5 4 4 5 4 4 3 5 6 1 1 3 8 14 16 18 21
19 18 18 18 20 21 19 17 11 8 7 9 23 25 33 29 17 19 22 12 5 7 10 9 5 8 8 5 7 5 6 5 8 1 3 1 4 5 2 6 9 12 16 19 22
21 18 15 18 21 24 26 14 16 3 4 6 8 8 17 16 9 24 28 13 5 12 8 7 6 6 5 5 9 6 9 6 5 4 5 1 5 4 6 6 7 14 17 18 20
26 25 21 23 21 18 17 9 14 8 5 2 3 3 12 10 10 6 23 13 7 7 7 7 8 7 6 7 6 3 6 7 3 3 1 2 3 2 6 8 10 16 21 21 21
29 27 26 24 27 28 25 14 20 4 9 3 3 4 5 2 3 5 8 4 4 5 2 4 1 6 8 3 7 9 7 6 4 3 4 11 10 4 7 8 12 18 25 25 25
26 31 26 27 28 27 28 21 4 5 3 5 4 5 2 5 2 3 6 6 7 5 6 1 5 3 5 6 3 3 7 1 2 1 6 2 5 9 6 8 19 25 29 29 26
27 30 29 30 29 26 23 4 7 7 8 4 4 2 7 7 5 6 7 6 6 3 3 6 5 11 7 10 8 8 8 6 7 5 2 2 7 5 0 4 21 31 37 32 28
25 29 31 33 29 28 22 9 7 6 6 10 3 3 4 4 5 5 7 6 10 12 11 7 6 2 3 3 10 6 8 5 6 2 2 5 5 1 3 5 19 26 33 35 32
30 31 38 34 32 29 10 19 8 8 4 4 14 12 11 8 10 9 10 6 6 15 4 5 3 2 3 4 2 5 8 4 0 3 4 3 4 6 7 10 13 21 31 38 35
29 14 21 27 24 18 9 7 7 15 16 6 12 7 7 8 12 8 8 3 8 8 14 6 5 1 5 7 10 4 4 2 4 4 5 2 5 4 9 16 20 27 33 38 37
27 5 13 24 15 4 13 5 6 5 20 13 4 14 14 12 10 14 15 6 16 14 11 7 4 5 7 1 0 1 7 7 6 5 2 2 6 1 4 15 24 27 32 39 38
12 15 15 34 9 10 4 4 5 5 7 7 8 7 4 9 7 13 8 3 14 9 15 10 4 3 1 2 2 6 5 3 3 2 8 5 5 3 5 12 24 30 34 42 41
8 4 7 19 10 10 11 7 6 15 6 6 1 3 3 7 7 7 6 4 6 5 8 7 5 7 10 4 3 6 6 6 6 5 6 14 3 4 4 10 18 25 33 42 45
3 0 2 4 9 9 11 11 9 8 14 15 5 7 4 6 4 5 5 3 0 11 3 4 6 4 2 3 2 4 4 7 10 9 10 6 10 6 11 14 28 38 35 38 44
7 4 3 4 2 7 18 12 15 11 8 5 9 14 14 7 7 7 7 4 4 1 4 4 3 4 4 3 3 4 8 8 7 5 5 2 15 8 8 14 20 32 38 43 48
9 9 5 3 2 1 4 9 13 17 9 6 10 9 16 20 12 9 10 11 8 8 7 7 6 6 3 2 3 6 17 16 8 6 12 12 12 7 8 18 30 36 37 40 42
Wind_Direction
294 298 300 299 300 302 307 312 319 322 324 323 323 322 320 319 317 314 310 291 275 249 239 243 236 241 48 79 65 91 64 164 208 168 203 148 81 145 312 257 357 46 51 340 264
282 281 283 289 294 297 300 303 306 306 307 311 316 319 322 322 323 315 291 262 235 219 210 188 168 123 81 81 71 85 107 213 194 199 198 296 183 325 166 324 91 39 326 282 269
283 284 283 282 284 287 291 293 296 300 303 306 310 314 318 324 329 360 69 127 124 140 153 155 147 80 82 32 47 132 176 202 235 227 255 248 299 203 138 61 124 320 339 74 82
272 278 283 284 281 281 283 286 291 295 297 302 305 308 312 317 303 0 184 174 163 168 183 179 182 80 90 127 155 55 245 222 263 211 233 250 283 306 93 171 302 114 121 98 82
278 278 275 277 281 281 282 284 286 289 293 297 301 304 313 297 265 265 255 246 240 225 221 220 228 167 163 164 157 163 258 232 255 264 269 260 255 293 8 166 141 127 125 87 53
272 277 280 279 279 280 280 280 283 287 291 294 297 301 299 273 260 261 260 249 248 241 234 227 220 190 145 161 173 191 271 282 282 265 252 212 81 155 120 139 134 120 74 49 34
266 271 275 279 281 280 280 282 282 283 286 289 293 293 284 269 264 255 253 249 244 238 233 227 219 193 163 137 191 187 310 318 263 267 217 168 63 46 152 173 109 77 66 51 38
266 269 276 278 278 279 281 282 284 284 284 285 288 288 266 269 258 252 249 249 238 224 220 213 206 180 180 132 38 52 51 347 269 161 284 165 187 49 143 230 103 95 84 71 68
269 273 277 282 284 281 279 282 283 284 284 284 284 270 265 253 252 245 237 228 215 209 203 192 168 153 142 102 20 2 240 217 315 229 120 188 177 358 47 158 112 101 98 92 92
268 268 273 280 284 284 286 284 283 282 274 276 259 271 236 232 221 217 211 206 187 179 155 167 150 99 63 118 221 194 215 239 235 202 158 190 224 59 72 125 113 111 106 101 99
262 263 268 270 277 284 288 291 292 273 236 215 204 209 246 218 216 206 195 180 161 167 157 157 131 205 199 198 142 144 182 208 236 233 173 223 247 74 113 113 121 118 114 107 102
258 259 268 272 277 277 277 267 243 274 293 253 245 243 243 228 200 200 187 181 179 171 120 75 224 219 140 161 157 147 164 238 286 230 176 256 235 80 89 131 153 139 129 122 115
256 255 264 273 267 270 268 261 262 279 270 251 241 238 237 229 225 208 191 195 168 148 194 180 206 170 146 147 168 206 192 208 226 37 227 319 242 203 69 124 144 146 140 133 126
257 243 259 267 254 256 259 267 248 300 296 249 217 231 209 201 228 219 205 190 193 197 166 232 219 139 166 181 169 216 203 182 185 134 237 181 283 231 176 170 174 164 157 145 134
249 252 256 250 259 248 259 247 213 152 269 328 134 173 159 180 142 170 182 199 177 174 146 232 163 181 188 194 157 243 148 178 149 185 74 207 288 224 135 209 195 187 170 158 147
242 247 246 252 257 259 248 228 165 123 230 258 137 163 129 160 111 106 162 157 136 127 284 234 171 158 191 109 153 151 84 60 53 106 257 196 199 213 196 199 175 186 178 166 158
243 243 242 245 248 256 246 173 197 202 293 201 192 180 156 153 157 146 162 175 168 140 221 188 207 184 149 94 60 137 126 174 301 224 233 140 191 248 193 179 176 177 179 172 165
241 242 253 237 251 253 215 216 205 204 211 94 118 97 181 159 199 173 145 191 242 144 128 174 271 173 191 190 171 190 173 165 206 204 233 64 222 253 10 178 175 174 175 172 169
242 242 246 245 240 238 190 221 214 192 195 145 127 167 234 212 172 143 201 206 206 185 189 172 263 165 169 156 152 193 207 154 105 31 54 208 278 248 96 119 153 165 175 177 175
236 239 243 242 236 217 219 234 223 178 154 175 214 184 187 190 172 187 183 199 208 190 204 205 298 192 173 121 52 173 157 133 88 205 242 247 259 240 197 181 172 176 180 182 179
235 229 245 238 223 202 228 232 231 207 198 177 212 246 207 186 192 194 213 221 200 182 189 142 183 189 127 208 177 160 196 187 148 173 179 230 247 198 197 183 185 185 186 185 182
211 217 202 189 191 185 230 202 180 209 209 234 240 214 213 183 200 207 214 227 179 147 179 186 137 185 199 230 284 225 184 181 191 208 233 140 257 40 241 178 179 184 187 190 188
210 215 194 189 214 208 166 211 216 189 187 196 220 217 152 204 219 208 196 176 172 161 162 173 173 157 249 323 309 215 186 173 102 86 191 160 256 11 103 156 178 180 190 194 193
294 170 185 214 211 224 203 204 206 210 232 188 312 147 154 205 210 218 170 176 192 169 153 126 154 192 212 162 130 178 179 179 173 204 188 228 192 212 187 168 178 191 197 200 198
220 283 310 198 229 205 175 172 191 201 214 172 181 201 205 204 176 208 160 134 322 160 98 119 205 183 169 131 107 163 160 180 201 215 204 225 218 203 193 191 195 199 200 198 202
217 169 198 275 335 252 218 196 201 208 192 199 212 203 192 192 214 189 151 175 175 58 117 145 175 146 197 168 208 247 220 193 203 211 267 238 259 176 212 190 191 202 200 203 203
216 217 218 199 263 258 238 214 222 202 210 169 216 180 204 212 192 146 178 182 169 162 176 170 151 153 199 144 113 284 224 203 189 189 192 210 226 171 189 189 197 203 200 200 202